| time (UTC) | temp F | wind direction | speed knots | gust knots | rain 1hr in | rain 24hr in | rain mn in | humidity % | barometer mb |
| 20260507021111 | 66 | 0.0 | 0.0 | 0.00 | 0.00 | 0.00 | 99 | 1010.1 | |
| 20260507013110 | 67 | 0.0 | 0.0 | 0.00 | 0.00 | 0.00 | 99 | 1009.8 | |
| 20260507011109 | 67 | 0.0 | 0.0 | 0.00 | 0.00 | 0.00 | 99 | 1009.6 | |
| 20260507003110 | 68 | 0.0 | 0.0 | 0.00 | 0.00 | 0.00 | 99 | 1009.6 | |
| 20260507001111 | 68 | 0.0 | 0.0 | 0.00 | 0.00 | 0.00 | 99 | 1009.6 | |
| 20260506235110 | 68 | 0.0 | 0.0 | 0.00 | 0.00 | 0.00 | 99 | 1009.5 | |
| 20260506233111 | 68 | 0.0 | 0.0 | 0.00 | 0.00 | 0.00 | 99 | 1009.4 | |
| 20260506231110 | 68 | 0.0 | 0.0 | 0.00 | 0.00 | 0.00 | 99 | 1009.3 | |
| 20260506225110 | 68 | 0.0 | 0.0 | 0.00 | 0.00 | 0.00 | 99 | 1009.3 | |
| 20260506215110 | 67 | 0.0 | 0.0 | 0.00 | 0.00 | 0.00 | 99 | 1009.0 | |
| 20260506213110 | 67 | 0.0 | 0.0 | 0.00 | 0.00 | 0.00 | 99 | 1008.8 | |
| 20260506211110 | 67 | 0.0 | 0.0 | 0.00 | 0.00 | 0.00 | 99 | 1008.6 | |
| 20260506205111 | 67 | 0.0 | 0.0 | 0.00 | 0.00 | 0.00 | 99 | 1008.6 | |
| 20260506203111 | 68 | 0.0 | 0.0 | 0.00 | 0.00 | 0.00 | 99 | 1008.7 | |
| 20260506201111 | 67 | 0.0 | 0.0 | 0.00 | 0.00 | 0.00 | 99 | 1008.8 | |
| 20260506193110 | 68 | 0.0 | 0.0 | 0.00 | 0.00 | 0.00 | 99 | 1008.5 | |
| 20260506191110 | 68 | 0.0 | 0.0 | 0.00 | 0.00 | 0.00 | 99 | 1008.4 | |
| 20260506185111 | 68 | 0.0 | 0.0 | 0.00 | 0.00 | 0.00 | 99 | 1008.2 | |
| 20260506183110 | 68 | 0.0 | 0.0 | 0.00 | 0.00 | 0.00 | 99 | 1008.0 | |
| 20260506181110 | 68 | 0.0 | 0.0 | 0.00 | 0.00 | 0.00 | 99 | 1007.7 | |
| 20260506175110 | 68 | 0.0 | 0.0 | 0.00 | 0.00 | 0.00 | 99 | 1007.6 | |
| 20260506173110 | 68 | 0.0 | 0.0 | 0.00 | 0.00 | 0.00 | 99 | 1007.5 | |
| 20260506171110 | 69 | 0.0 | 0.0 | 0.00 | 0.00 | 0.00 | 99 | 1007.6 | |
| 20260506163111 | 70 | 0.0 | 0.0 | 0.00 | 0.00 | 0.00 | 99 | 1007.4 | |
| 20260506161111 | 70 | 0.0 | 0.0 | 0.00 | 0.00 | 0.00 | 99 | 1007.5 | |
| 20260506155110 | 71 | 0.0 | 0.0 | 0.00 | 0.00 | 0.00 | 99 | 1007.3 | |
| 20260506153110 | 72 | 0.0 | 0.0 | 0.00 | 0.00 | 0.00 | 99 | 1007.1 | |
| 20260506151110 | 74 | 0.0 | 0.0 | 0.00 | 0.00 | 0.00 | 82 | 1006.9 | |
| 20260506145111 | 75 | 0.0 | 0.0 | 0.00 | 0.00 | 0.00 | 1 | 1006.8 | |
| 20260506143109 | 76 | 0.0 | 0.0 | 0.00 | 0.00 | 0.00 | 3 | 1006.4 | |
| 20260506141110 | 75 | 0.0 | 0.0 | 0.00 | 0.00 | 0.00 | 99 | 1006.3 | |
| 20260506135110 | 75 | 0.0 | 0.0 | 0.00 | 0.00 | 0.00 | 58 | 1006.3 | |
| 20260506133112 | 76 | 0.0 | 0.0 | 0.00 | 0.00 | 0.00 | 7 | 1006.2 | |
| 20260506131110 | 75 | 0.0 | 0.0 | 0.00 | 0.00 | 0.00 | 3 | 1006.1 | |
| 20260506125111 | 76 | 0.0 | 0.0 | 0.00 | 0.00 | 0.00 | 26 | 1006.0 | |
| 20260506123109 | 77 | 0.0 | 0.0 | 0.00 | 0.00 | 0.00 | 31 | 1006.0 | |
| 20260506121111 | 76 | 0.0 | 0.0 | 0.00 | 0.00 | 0.00 | 18 | 1006.0 | |
| 20260506115110 | 75 | 0.0 | 0.0 | 0.00 | 0.00 | 0.00 | 1 | 1005.8 | |
| 20260506113110 | 75 | 0.0 | 0.0 | 0.00 | 0.00 | 0.00 | 3 | 1006.0 | |
| 20260506103111 | 75 | 0.0 | 0.0 | 0.00 | 0.00 | 0.00 | 21 | 1006.0 | |
| 20260506101110 | 74 | 0.0 | 0.0 | 0.00 | 0.00 | 0.00 | 10 | 1006.0 | |
| 20260506093110 | 75 | 0.0 | 0.0 | 0.00 | 0.00 | 0.00 | 7 | 1005.9 | |
| 20260506091110 | 74 | 0.0 | 0.0 | 0.00 | 0.00 | 0.00 | 4 | 1006.0 | |
| 20260506085111 | 73 | 0.0 | 0.0 | 0.00 | 0.00 | 0.00 | 1 | 1005.9 | |
| 20260506083110 | 72 | 0.0 | 0.0 | 0.00 | 0.00 | 0.00 | 41 | 1006.0 | |
| 20260506081111 | 71 | 0.0 | 0.0 | 0.00 | 0.00 | 0.00 | 99 | 1005.9 | |
| 20260506073110 | 69 | 0.0 | 0.0 | 0.00 | 0.00 | 0.00 | 99 | 1005.8 | |
| 20260506071110 | 69 | 0.0 | 0.0 | 0.00 | 0.00 | 0.00 | 99 | 1006.1 | |
| 20260506061111 | 69 | 0.0 | 0.0 | 0.00 | 0.00 | 0.00 | 99 | 1005.6 | |
| 20260506051111 | 69 | 0.0 | 0.0 | 0.00 | 0.00 | 0.00 | 99 | 1005.6 | |
| 20260506043111 | 68 | 0.0 | 0.0 | 0.00 | 0.00 | 0.00 | 99 | 1005.6 | |
| 20260506041110 | 68 | 0.0 | 0.0 | 0.00 | 0.00 | 0.00 | 99 | 1006.0 | |
| 20260506035111 | 68 | 0.0 | 0.0 | 0.00 | 0.00 | 0.00 | 99 | 1006.1 | |
| 20260506033111 | 68 | 0.0 | 0.0 | 0.00 | 0.00 | 0.00 | 99 | 1006.4 | |
| 20260506031110 | 68 | 0.0 | 0.0 | 0.00 | 0.00 | 0.00 | 99 | 1006.5 | |
| 20260506025111 | 68 | 0.0 | 0.0 | 0.00 | 0.00 | 0.00 | 99 | 1006.9 | |
| 20260506023110 | 68 | 0.0 | 0.0 | 0.00 | 0.00 | 0.00 | 99 | 1007.0 |